N7MLR Weather Reports


Display with metric or nautical units.
time (UTC)temp
F
wind
direction
speed
MPH
gust
MPH
rain 1hr
in
rain 24hr
in
rain mn
in
humidity
%
barometer
mb
20260831094430 74 201 0.0 0.0 0.00 0.00 0.00 94 1016.0
20260831093926 74 202 0.0 0.0 0.00 0.00 0.00 94 1015.9
20260831093420 74 202 0.0 0.0 0.00 0.00 0.00 93 1015.7
20260831092918 74 204 0.0 0.0 0.00 0.00 0.00 93 1015.7
20260831092413 74 204 0.0 0.0 0.00 0.00 0.00 93 1015.8
20260831091908 74 204 0.0 0.0 0.00 0.00 0.00 92 1016.0
20260831091403 75 208 0.0 0.0 0.00 0.00 0.00 92 1015.8
20260831090858 75 208 0.0 0.0 0.00 0.00 0.00 91 1015.9
20260831090354 75 208 0.0 0.0 0.00 0.00 0.00 90 1015.8
20260831085851 75 208 0.0 0.0 0.00 0.00 0.00 90 1016.2
20260831085344 76 204 0.0 0.0 0.00 0.00 0.00 89 1015.9
20260831084839 76 204 0.0 0.0 0.00 0.00 0.00 88 1016.0
20260831084335 77 208 0.0 1.0 0.00 0.00 0.00 87 1015.9
20260831083831 77 201 1.0 1.0 0.00 0.00 0.00 86 1016.1
20260831083327 77 205 0.0 0.0 0.00 0.00 0.00 86 1016.0
20260831082825 77 202 0.0 0.0 0.00 0.00 0.00 87 1016.2
20260831082320 76 205 1.0 1.0 0.00 0.00 0.00 88 1016.0
20260831081816 75 207 0.0 0.0 0.00 0.00 0.00 90 1016.4
20260831081311 74 217 1.0 1.0 0.00 0.00 0.00 91 1016.0
20260831080807 75 222 0.0 0.0 0.00 0.00 0.00 90 1016.3
20260831080301 75 222 0.0 0.0 0.00 0.00 0.00 90 1016.1
20260831075757 75 222 0.0 0.0 0.00 0.00 0.00 89 1016.1
20260831075252 75 222 0.0 0.0 0.00 0.00 0.00 89 1016.5
20260831074752 75 222 0.0 0.0 0.00 0.00 0.00 88 1016.3
20260831074246 76 222 0.0 0.0 0.00 0.00 0.00 88 1016.3
20260831073742 76 222 0.0 0.0 0.00 0.00 0.00 87 1016.1
20260831073241 76 222 0.0 0.0 0.00 0.00 0.00 86 1016.1
20260831072736 77 222 0.0 0.0 0.00 0.00 0.00 85 1016.1
20260831072232 77 222 0.0 0.0 0.00 0.00 0.00 85 1016.2
20260831071733 78 225 1.0 2.0 0.00 0.00 0.00 83 1016.1
20260831071227 78 216 0.0 0.0 0.00 0.00 0.00 82 1016.2
20260831070721 79 202 0.0 1.0 0.00 0.00 0.00 81 1016.2
20260831070215 79 200 1.0 1.0 0.00 0.00 0.00 80 1016.1
20260831065714 79 203 0.0 1.0 0.00 0.00 0.00 80 1016.1
20260831065213 80 202 1.0 1.0 0.00 0.00 0.00 79 1016.2
20260831064708 80 205 0.0 1.0 0.00 0.00 0.00 79 1016.3
20260831064202 80 198 1.0 2.0 0.00 0.00 0.00 78 1016.4
20260831063659 80 215 0.0 0.0 0.00 0.00 0.00 79 1016.5
20260831063149 78 214 0.0 1.0 0.00 0.00 0.00 81 1016.5
20260831062649 78 224 0.0 1.0 0.00 0.00 0.00 81 1016.2
20260831062148 79 215 0.0 0.0 0.00 0.00 0.00 80 1016.3
20260831061646 79 223 1.0 1.0 0.00 0.00 0.00 80 1016.0
20260831061142 79 233 1.0 1.0 0.00 0.00 0.00 79 1016.1
20260831060638 79 253 2.0 3.0 0.00 0.00 0.00 79 1016.1
20260831060138 79 225 1.0 2.0 0.00 0.00 0.00 78 1016.0
20260831055637 79 226 1.0 1.0 0.00 0.00 0.00 78 1016.2
20260831055133 80 142 1.0 2.0 0.00 0.00 0.00 77 1016.1
20260831054632 80 224 0.0 1.0 0.00 0.00 0.00 76 1016.0
20260831054132 81 227 1.0 1.0 0.00 0.00 0.00 75 1015.9
20260831053627 82 237 1.0 2.0 0.00 0.00 0.00 73 1016.1
20260831053126 82 309 1.0 2.0 0.00 0.00 0.00 73 1016.0
20260831052625 82 213 0.0 1.0 0.00 0.00 0.00 72 1015.9
20260831052124 82 197 1.0 2.0 0.00 0.00 0.00 72 1015.9
20260831051622 82 283 3.0 5.0 0.00 0.00 0.00 72 1015.8
20260831051115 83 246 1.0 2.0 0.00 0.00 0.00 70 1015.9
20260831050610 83 205 0.0 1.0 0.00 0.00 0.00 69 1015.8
20260831050108 83 224 1.0 2.0 0.00 0.00 0.00 70 1015.9
20260831045603 83 111 3.0 3.0 0.00 0.00 0.00 69 1015.8
20260831045058 83 248 1.0 1.0 0.00 0.00 0.00 68 1015.7
20260831044553 83 242 1.0 1.0 0.00 0.00 0.00 68 1015.8
20260831044048 82 211 0.0 0.0 0.00 0.00 0.00 71 1015.6
20260831043544 82 225 0.0 1.0 0.00 0.00 0.00 70 1015.7
20260831043039 82 221 0.0 1.0 0.00 0.00 0.00 69 1015.4
20260831042538 83 228 1.0 1.0 0.00 0.00 0.00 69 1015.5
20260831042033 83 222 0.0 0.0 0.00 0.00 0.00 68 1015.5
20260831041528 83 251 2.0 3.0 0.00 0.00 0.00 68 1015.6
20260831041027 83 311 1.0 2.0 0.00 0.00 0.00 68 1015.4
20260831040522 84 225 2.0 2.0 0.00 0.00 0.00 67 1015.5
20260831040022 85 223 1.0 1.0 0.00 0.00 0.00 66 1015.4
20260831035520 85 221 1.0 1.0 0.00 0.00 0.00 64 1015.5
20260831035015 85 215 1.0 1.0 0.00 0.00 0.00 64 1015.4
20260831034509 86 232 0.0 1.0 0.00 0.00 0.00 64 1015.2
20260831034005 86 145 1.0 2.0 0.00 0.00 0.00 63 1015.4
20260831033500 86 257 0.0 1.0 0.00 0.00 0.00 63 1015.3
20260831032956 86 220 1.0 2.0 0.00 0.00 0.00 63 1015.2
20260831032455 86 220 1.0 2.0 0.00 0.00 0.00 63 1015.1
20260831031951 87 210 1.0 2.0 0.00 0.00 0.00 63 1015.1
20260831031450 87 288 3.0 3.0 0.00 0.00 0.00 62 1015.0
20260831030949 87 208 1.0 2.0 0.00 0.00 0.00 63 1015.1
20260831030449 87 211 1.0 2.0 0.00 0.00 0.00 62 1014.9
20260831025947 87 204 0.0 1.0 0.00 0.00 0.00 61 1014.7
20260831025446 87 261 2.0 3.0 0.00 0.00 0.00 61 1014.8
20260831024942 87 206 1.0 2.0 0.00 0.00 0.00 62 1014.6
20260831024443 87 224 1.0 1.0 0.00 0.00 0.00 62 1014.6
20260831023937 88 11 2.0 2.0 0.00 0.00 0.00 61 1014.3
20260831023435 87 213 0.0 1.0 0.00 0.00 0.00 62 1014.2
20260831022930 87 206 1.0 1.0 0.00 0.00 0.00 62 1014.1
20260831022429 87 205 1.0 1.0 0.00 0.00 0.00 62 1014.1
20260831021924 88 213 1.0 1.0 0.00 0.00 0.00 61 1013.8
20260831021418 88 214 0.0 1.0 0.00 0.00 0.00 61 1013.8
20260831020914 88 232 1.0 1.0 0.00 0.00 0.00 60 1013.6
20260831020413 89 212 1.0 1.0 0.00 0.00 0.00 59 1013.7
20260831015908 89 211 0.0 1.0 0.00 0.00 0.00 59 1013.7
20260831015405 89 218 1.0 2.0 0.00 0.00 0.00 59 1013.6
20260831014904 89 215 0.0 1.0 0.00 0.00 0.00 58 1013.6
20260831014359 89 220 3.0 3.0 0.00 0.00 0.00 58 1013.6
20260831013855 89 262 1.0 1.0 0.00 0.00 0.00 57 1013.4
20260831013350 89 239 2.0 3.0 0.00 0.00 0.00 57 1013.5
20260831012844 89 199 0.0 1.0 0.00 0.00 0.00 57 1013.0
20260831012340 89 199 1.0 1.0 0.00 0.00 0.00 57 1013.2
20260831011839 89 200 0.0 1.0 0.00 0.00 0.00 56 1013.1
20260831011335 89 201 1.0 1.0 0.00 0.00 0.00 57 1013.2
20260831010831 90 204 0.0 1.0 0.00 0.00 0.00 56 1013.1
20260831010330 90 208 0.0 1.0 0.00 0.00 0.00 55 1013.2
20260831005826 90 210 0.0 1.0 0.00 0.00 0.00 54 1013.0
20260831005322 91 206 0.0 1.0 0.00 0.00 0.00 54 1013.0
20260831004816 91 206 1.0 1.0 0.00 0.00 0.00 54 1013.1
20260831004313 91 210 0.0 1.0 0.00 0.00 0.00 53 1013.0
20260831003808 91 216 1.0 1.0 0.00 0.00 0.00 52 1013.0
20260831003304 92 210 1.0 1.0 0.00 0.00 0.00 53 1012.8
20260831002803 92 215 0.0 1.0 0.00 0.00 0.00 51 1013.0
20260831002257 92 213 0.0 1.0 0.00 0.00 0.00 51 1013.1
20260831001753 92 228 1.0 2.0 0.00 0.00 0.00 50 1012.9
20260831001248 92 209 0.0 1.0 0.00 0.00 0.00 50 1012.9
20260831000745 92 226 2.0 2.0 0.00 0.00 0.00 48 1012.9
20260831000245 93 222 1.0 1.0 0.00 0.00 0.00 48 1012.9
20260830235743 93 229 1.0 1.0 0.00 0.00 0.00 47 1013.1
20260830235238 94 202 1.0 2.0 0.00 0.00 0.00 46 1012.8
20260830234733 94 224 1.0 1.0 0.00 0.00 0.00 46 1013.1
20260830234230 93 153 1.0 2.0 0.00 0.00 0.00 47 1012.9
20260830233725 93 230 1.0 2.0 0.00 0.00 0.00 48 1013.1
20260830233220 93 219 1.0 2.0 0.00 0.00 0.00 48 1013.0
20260830232716 94 234 1.0 1.0 0.00 0.00 0.00 47 1012.9
20260830232211 94 236 1.0 2.0 0.00 0.00 0.00 46 1013.2
20260830231708 95 273 1.0 2.0 0.00 0.00 0.00 45 1012.9
20260830231207 96 225 3.0 3.0 0.00 0.00 0.00 43 1013.0
20260830230702 97 208 1.0 1.0 0.00 0.00 0.00 42 1012.8
20260830230157 96 219 0.0 0.0 0.00 0.00 0.00 43 1012.8
20260830225652 96 197 2.0 2.0 0.00 0.00 0.00 43 1013.1
20260830225146 96 162 2.0 2.0 0.00 0.00 0.00 43 1013.2
20260830224645 96 213 1.0 1.0 0.00 0.00 0.00 44 1013.0
20260830224141 96 198 1.0 1.0 0.00 0.00 0.00 43 1013.2
20260830223638 96 197 2.0 2.0 0.00 0.00 0.00 43 1013.2
20260830223138 96 208 0.0 1.0 0.00 0.00 0.00 43 1013.2
20260830222632 94 289 2.0 2.0 0.00 0.00 0.00 44 1013.4
20260830222129 95 210 1.0 1.0 0.00 0.00 0.00 43 1013.0
20260830221624 95 288 3.0 3.0 0.00 0.00 0.00 43 1013.4
20260830221120 95 251 2.0 3.0 0.00 0.00 0.00 45 1013.2
20260830220615 95 225 2.0 2.0 0.00 0.00 0.00 45 1013.3
20260830220114 95 254 2.0 2.0 0.00 0.00 0.00 46 1013.3
20260830215613 96 224 1.0 1.0 0.00 0.00 0.00 45 1013.3
20260830215108 97 238 1.0 1.0 0.00 0.00 0.00 45 1013.3
20260830214603 97 208 1.0 1.0 0.00 0.00 0.00 42 1013.2
20260830214058 96 210 2.0 3.0 0.00 0.00 0.00 43 1013.5
20260830213557 96 231 2.0 2.0 0.00 0.00 0.00 45 1013.7
20260830213053 96 250 3.0 3.0 0.00 0.00 0.00 44 1013.7
20260830212549 94 209 0.0 0.0 0.00 0.00 0.00 46 1013.8
20260830212048 96 281 2.0 3.0 0.00 0.00 0.00 45 1014.1
20260830211543 96 198 0.0 0.0 0.00 0.00 0.00 45 1013.6
20260830211038 95 189 1.0 2.0 0.00 0.00 0.00 45 1014.1
20260830210533 96 153 1.0 1.0 0.00 0.00 0.00 46 1014.1
20260830210032 94 200 0.0 1.0 0.00 0.00 0.00 47 1014.0
20260830205530 94 247 0.0 1.0 0.00 0.00 0.00 48 1014.2
20260830205026 95 217 0.0 1.0 0.00 0.00 0.00 49 1014.3
20260830204525 96 201 1.0 3.0 0.00 0.00 0.00 47 1014.3
20260830204024 97 178 1.0 1.0 0.00 0.00 0.00 47 1014.3
20260830203521 96 236 1.0 2.0 0.00 0.00 0.00 46 1014.5
20260830203016 94 195 0.0 1.0 0.00 0.00 0.00 47 1014.7
20260830202510 94 248 1.0 1.0 0.00 0.00 0.00 50 1014.9
20260830202006 92 212 1.0 1.0 0.00 0.00 0.00 51 1014.6
20260830201505 92 257 3.0 5.0 0.00 0.00 0.00 52 1015.0
20260830201001 95 200 1.0 2.0 0.00 0.00 0.00 51 1015.1
20260830200501 93 222 3.0 3.0 0.00 0.00 0.00 51 1015.1
20260830195959 94 212 1.0 2.0 0.00 0.00 0.00 50 1015.2
20260830195455 95 179 3.0 3.0 0.00 0.00 0.00 48 1015.1
20260830194953 95 207 1.0 1.0 0.00 0.00 0.00 51 1015.3
20260830194453 94 200 1.0 1.0 0.00 0.00 0.00 50 1015.5
20260830193948 94 212 0.0 1.0 0.00 0.00 0.00 51 1015.4
20260830193447 94 194 0.0 1.0 0.00 0.00 0.00 51 1015.6
20260830192942 95 198 1.0 1.0 0.00 0.00 0.00 50 1015.5
20260830192437 96 192 1.0 1.0 0.00 0.00 0.00 49 1015.7
20260830191933 95 85 3.0 3.0 0.00 0.00 0.00 48 1015.6
20260830191432 96 155 3.0 3.0 0.00 0.00 0.00 48 1015.8
20260830190928 97 191 1.0 1.0 0.00 0.00 0.00 48 1015.7
20260830190423 96 200 0.0 1.0 0.00 0.00 0.00 47 1016.0
20260830185922 93 196 1.0 1.0 0.00 0.00 0.00 52 1016.1
20260830185417 95 204 2.0 2.0 0.00 0.00 0.00 50 1016.1
20260830184913 95 239 4.0 6.0 0.00 0.00 0.00 50 1016.3
20260830184411 96 207 1.0 1.0 0.00 0.00 0.00 50 1016.0
20260830183912 95 269 1.0 2.0 0.00 0.00 0.00 50 1016.0
20260830183406 95 238 2.0 2.0 0.00 0.00 0.00 49 1016.3
20260830182902 92 195 1.0 1.0 0.00 0.00 0.00 53 1016.4
20260830182357 94 211 1.0 2.0 0.00 0.00 0.00 52 1016.5
20260830181853 93 178 2.0 2.0 0.00 0.00 0.00 53 1016.5
20260830181348 91 210 0.0 1.0 0.00 0.00 0.00 57 1016.7
20260830180843 93 187 1.0 1.0 0.00 0.00 0.00 53 1016.7
20260830180337 93 332 2.0 3.0 0.00 0.00 0.00 54 1016.7
20260830175836 93 178 1.0 1.0 0.00 0.00 0.00 52 1017.2
20260830175331 93 196 1.0 2.0 0.00 0.00 0.00 54 1016.7
20260830174826 93 259 1.0 3.0 0.00 0.00 0.00 53 1017.3
20260830174321 95 249 2.0 2.0 0.00 0.00 0.00 52 1017.0
20260830173821 95 203 0.0 1.0 0.00 0.00 0.00 52 1017.2
20260830173317 93 213 0.0 1.0 0.00 0.00 0.00 54 1017.2
20260830172814 92 201 0.0 1.0 0.00 0.00 0.00 55 1017.5
20260830172310 93 285 3.0 3.0 0.00 0.00 0.00 54 1017.4
20260830171805 93 257 1.0 2.0 0.00 0.00 0.00 52 1017.3
20260830171301 93 155 3.0 3.0 0.00 0.00 0.00 54 1017.5
20260830170755 92 167 3.0 3.0 0.00 0.00 0.00 56 1017.4
20260830170254 92 228 2.0 2.0 0.00 0.00 0.00 58 1017.7
20260830165753 91 270 2.0 3.0 0.00 0.00 0.00 59 1017.7
20260830165249 90 236 1.0 1.0 0.00 0.00 0.00 61 1017.5
20260830164745 89 222 1.0 1.0 0.00 0.00 0.00 62 1017.4
20260830164240 89 249 1.0 2.0 0.00 0.00 0.00 62 1017.7
20260830163732 89 153 2.0 2.0 0.00 0.00 0.00 61 1017.8
20260830163227 90 238 1.0 2.0 0.00 0.00 0.00 61 1017.9
20260830162721 89 219 1.0 1.0 0.00 0.00 0.00 63 1017.5
20260830162218 87 226 0.0 1.0 0.00 0.00 0.00 65 1017.8
20260830161713 87 43 2.0 3.0 0.00 0.00 0.00 63 1017.6
20260830161207 89 212 0.0 1.0 0.00 0.00 0.00 62 1017.7
20260830160703 89 215 1.0 2.0 0.00 0.00 0.00 62 1017.7
20260830160157 88 202 1.0 2.0 0.00 0.00 0.00 64 1017.7
20260830155654 87 231 1.0 1.0 0.00 0.00 0.00 65 1017.8
20260830155149 86 213 1.0 2.0 0.00 0.00 0.00 66 1017.7
20260830154644 87 201 2.0 2.0 0.00 0.00 0.00 65 1017.9
20260830154140 87 114 3.0 3.0 0.00 0.00 0.00 66 1017.5
20260830153637 85 169 2.0 2.0 0.00 0.00 0.00 69 1017.8
20260830153136 85 202 2.0 2.0 0.00 0.00 0.00 71 1017.8
20260830152635 84 211 1.0 1.0 0.00 0.00 0.00 72 1017.6
20260830152129 83 206 1.0 1.0 0.00 0.00 0.00 74 1017.8
20260830151624 82 189 1.0 2.0 0.00 0.00 0.00 76 1017.4
20260830151124 83 202 1.0 1.0 0.00 0.00 0.00 76 1017.6
20260830150618 84 177 2.0 2.0 0.00 0.00 0.00 74 1017.6
20260830150113 82 205 1.0 1.0 0.00 0.00 0.00 77 1017.6
20260830145613 82 213 1.0 2.0 0.00 0.00 0.00 78 1017.7
20260830145108 84 216 1.0 1.0 0.00 0.00 0.00 78 1017.4
20260830144603 82 244 1.0 2.0 0.00 0.00 0.00 79 1017.7
20260830144059 82 217 1.0 1.0 0.00 0.00 0.00 80 1017.5
20260830143555 80 217 1.0 2.0 0.00 0.00 0.00 82 1017.6
20260830143053 80 217 1.0 1.0 0.00 0.00 0.00 83 1017.8
20260830142549 80 210 1.0 2.0 0.00 0.00 0.00 84 1017.6
20260830142044 79 204 1.0 1.0 0.00 0.00 0.00 86 1017.6
20260830141539 78 205 1.0 1.0 0.00 0.00 0.00 88 1017.7
20260830141039 78 192 0.0 1.0 0.00 0.00 0.00 88 1017.7
20260830140533 78 187 1.0 2.0 0.00 0.00 0.00 88 1017.4
20260830140029 79 194 1.0 1.0 0.00 0.00 0.00 88 1017.6
20260830135524 79 200 0.0 1.0 0.00 0.00 0.00 87 1017.3
20260830135019 79 270 1.0 2.0 0.00 0.00 0.00 87 1017.5
20260830134515 78 214 2.0 2.0 0.00 0.00 0.00 88 1017.5
20260830134010 77 218 0.0 0.0 0.00 0.00 0.00 90 1017.6
20260830133506 77 198 0.0 1.0 0.00 0.00 0.00 92 1017.6
20260830133001 75 200 0.0 0.0 0.00 0.00 0.00 94 1017.1
20260830132457 75 200 0.0 0.0 0.00 0.00 0.00 96 1017.3
20260830131956 73 200 0.0 0.0 0.00 0.00 0.00 97 1017.2
20260830131455 73 200 0.0 0.0 0.00 0.00 0.00 97 1017.2
20260830130950 73 200 0.0 0.0 0.00 0.00 0.00 97 1017.3
20260830130446 73 200 0.0 0.0 0.00 0.00 0.00 97 1017.1
20260830125944 71 200 0.0 0.0 0.00 0.00 0.00 97 1017.1
20260830125440 71 200 0.0 0.0 0.00 0.00 0.00 97 1016.9
20260830124938 71 200 0.0 0.0 0.00 0.00 0.00 97 1017.0
20260830124433 71 200 0.0 0.0 0.00 0.00 0.00 97 1017.0
20260830123930 70 200 0.0 0.0 0.00 0.00 0.00 97 1016.7
20260830123426 70 199 0.0 0.0 0.00 0.00 0.00 97 1017.0
20260830122924 70 198 0.0 0.0 0.00 0.00 0.00 97 1016.7
20260830122423 71 198 0.0 0.0 0.00 0.00 0.00 97 1016.7
20260830121918 70 198 0.0 0.0 0.00 0.00 0.00 96 1016.6
20260830121414 71 198 0.0 0.0 0.00 0.00 0.00 96 1016.5
20260830120908 71 198 0.0 0.0 0.00 0.00 0.00 96 1016.6
20260830120404 70 198 0.0 0.0 0.00 0.00 0.00 96 1016.6
20260830115900 71 198 0.0 0.0 0.00 0.00 0.00 96 1016.6
20260830115356 71 198 0.0 0.0 0.00 0.00 0.00 95 1016.5
20260830114851 71 198 0.0 0.0 0.00 0.00 0.00 95 1016.5
20260830114348 71 198 0.0 0.0 0.00 0.00 0.00 95 1016.3
20260830113842 71 198 0.0 0.0 0.00 0.00 0.00 95 1016.7
20260830113343 71 198 0.0 0.0 0.00 0.00 0.00 94 1016.6
20260830112838 71 198 0.0 0.0 0.00 0.00 0.00 94 1016.6
20260830112334 72 198 0.0 0.0 0.00 0.00 0.00 94 1016.5
20260830111830 72 198 0.0 0.0 0.00 0.00 0.00 94 1016.7
20260830111326 72 198 0.0 0.0 0.00 0.00 0.00 93 1016.5
20260830110826 72 198 0.0 0.0 0.00 0.00 0.00 93 1016.4
20260830110322 72 198 0.0 1.0 0.00 0.00 0.00 93 1016.4
20260830105821 72 198 0.0 1.0 0.00 0.00 0.00 93 1016.3
20260830105318 72 198 1.0 1.0 0.00 0.00 0.00 94 1016.4
20260830104814 73 198 0.0 1.0 0.00 0.00 0.00 94 1016.4
20260830104310 72 198 1.0 1.0 0.00 0.00 0.00 95 1016.5
20260830103809 71 199 0.0 0.0 0.00 0.00 0.00 94 1016.4
20260830103305 72 199 0.0 0.0 0.00 0.00 0.00 94 1016.4
20260830102803 71 199 0.0 0.0 0.00 0.00 0.00 94 1016.6
20260830102259 71 199 0.0 0.0 0.00 0.00 0.00 94 1016.7
20260830101754 71 199 0.0 0.0 0.00 0.00 0.00 94 1016.4
20260830101250 71 199 0.0 0.0 0.00 0.00 0.00 94 1016.3
20260830100748 72 200 0.0 0.0 0.00 0.00 0.00 94 1016.5
20260830100244 72 200 0.0 0.0 0.00 0.00 0.00 93 1016.5
20260830095742 72 200 0.0 0.0 0.00 0.00 0.00 93 1016.4
20260830095239 72 200 0.0 0.0 0.00 0.00 0.00 92 1016.3